Regional Weather Roundup
Issued by NWS Albany, NY

Home | Current Version | Previous Version | Text Only | Print | Product List | Glossary On
Versions: 1 2 3 4 5 6 7 8 9 10 11 12 13 14 15 16 17 18 19 20 21 22 23 24 25 26 27 28 29 30 31 32 33 34 35 36 37 38 39 40 41 42 43 44 45 46 47 48 49 50
000
ASUS41 KALY 220910
RWRALY

NEW YORK STATE HOURLY WEATHER ROUNDUP
NATIONAL WEATHER SERVICE ALBANY NY
400 AM EST MON DEC 22 2014

NOTE: "FAIR" INDICATES FEW OR NO CLOUDS BELOW 12,000 FEET WITH NO
SIGNIFICANT WEATHER AND/OR NO OBSTRUCTIONS TO VISIBILITY.

NYZ032-033-038>043-046>054-057>066-NYZ062>081-221000-
EAST


CITY           SKY/WX    TMP DP  RH WIND       PRES   REMARKS
ALBANY         FLURRIES  30  23  75 N5        30.36S WCI  25
GLENS FALLS    NOT AVBL
POUGHKEEPSIE   CLOUDY    33  27  78 N3        30.34F
NEWBURGH       CLOUDY    30  28  93 NE6       30.33F WCI  24
MONTGOMERY     CLOUDY    31  27  85 NE6       30.32F WCI  25
WHITE PLAINS   CLOUDY    33  31  92 NW3       30.30F
ISLIP          CLOUDY    38  34  85 N6        30.30F WCI  33
NEW YORK CITY  CLOUDY    36  31  82 N5        30.32F WCI  32
CENTRAL PARK   CLOUDY    36  30  79 CALM      30.34F
$$

NYZ005>009-017-018-044>046-055-056-221000-
CENTRAL


CITY           SKY/WX    TMP DP  RH WIND       PRES   REMARKS
FULTON         CLOUDY    31  22  69 SE6       30.31F WCI  25
SYRACUSE       CLOUDY    30  24  78 E5        30.31F WCI  25
ROME           CLOUDY    29  23  78 E6        30.35S WCI  23
ELMIRA         CLEAR     25  20  81 CALM      30.26F
BINGHAMTON     CLOUDY    27  22  81 CALM      30.23F
MONTICELLO     CLOUDY    28  27  93 E3        30.28F
$$

NYZ026>034-041>043-221000-
NORTH


CITY           SKY/WX    TMP DP  RH WIND       PRES   REMARKS
WATERTOWN      CLOUDY    20  14  77 E3        30.33S HAZE
FORT DRUM      NOT AVBL
MASSENA        CLOUDY    15  12  88 E7        30.39F FOG     WCI   5
SARANAC LAKE   PTCLDY     4  32 100 CALM      30.25F
PLATTSBURGH    CLOUDY    22  20  92 NE3       30.38S FOG
$$

NYZ001>004-010>016-019>021-221000-
WEST


CITY           SKY/WX    TMP DP  RH WIND       PRES   REMARKS
NIAGARA FALLS  CLOUDY    30  24  78 SE6       30.22F WCI  24
BUFFALO        MOCLDY    30  23  75 SE12      30.23S WCI  20
DUNKIRK        PTCLDY    24  20  84 NE7       30.20F WCI  16
JAMESTOWN      CLEAR     21  18  86 SE3       30.13F
WELLSVILLE     CLEAR     21  18  88 SE8       30.16F WCI  11
ROCHESTER      PTCLDY    30  21  69 S9        30.26F WCI  22
PENN YAN       PTCLDY    27  20  75 SE7       30.25F WCI  19
$$

             KEY
       WCI = WIND CHILL INDEX
       VSB = VISIBILITY
       HX  = HEAT INDEX
$$


USA.gov is the U.S. government's official web portal to all federal, state and local government web resources and services.